Regional Weather Roundup
Issued by NWS

Home | Current Version | Previous Version | Text Only | Print | Product List | Glossary On
Versions: 1 2 3 4 5 6 7 8 9 10 11 12 13 14 15 16 17 18 19 20 21 22 23 24 25 26 27 28 29 30 31 32 33 34 35 36 37 38 39 40 41 42 43 44 45 46 47 48 49 50
000
ASUS43 KDTX 191210
RWRMI
MICHIGAN HOURLY REGIONAL WEATHER ROUNDUP
NATIONAL WEATHER SERVICE DETROIT/PONTIAC MI
700 AM EST FRI DEC 19 2014

NOTE: "FAIR" INDICATES FEW OR NO CLOUDS BELOW 12,000 FEET WITH NO
SIGNIFICANT WEATHER AND/OR OBSTRUCTION TO VISIBILITY.

MIZ047>049-052>055-059>063-066>070-074>076-081>083-191300-
SOUTHEAST LOWER MICHIGAN

CITY           SKY/WX    TMP DP  RH WIND       PRES   REMARKS
ADRIAN         CLOUDY    29  25  85 NW5       30.24R
6HR MIN TEMP:  29; 6HR MAX TEMP:  29;

ALMA           CLOUDY    24  19  81 N3        30.26S
ANN ARBOR      CLOUDY    27  24  89 NW5       30.23R
BAD AXE        CLOUDY    22  21  95 W7        30.23R
6HR MIN TEMP:  21; 6HR MAX TEMP:  27;

DETROIT CITY   CLOUDY    29  19  66 N8        30.25R
6HR MIN TEMP:  28; 6HR MAX TEMP:  30;

DETROIT        CLOUDY    27  21  78 N9        30.25R
6HR MIN TEMP:  27; 6HR MAX TEMP:  30; 6HR PCP: TRACE;

FLINT          CLOUDY    26  19  74 N5        30.25R
6HR MIN TEMP:  26; 6HR MAX TEMP:  27;

GROSSE ILE     CLOUDY    28  23  80 N9        30.23R
HILLSDALE      CLOUDY    28  27  96 W3        30.21R FOG
6HR MIN TEMP:  27; 6HR MAX TEMP:  28;

HOWELL         CLOUDY    25  23  92 N3        30.23R
6HR MIN TEMP:  25; 6HR MAX TEMP:  26;


CITY           SKY/WX    TMP DP  RH WIND       PRES   REMARKS
JACKSON        CLOUDY    28  25  88 NE6       30.22R
6HR MIN TEMP:  27; 6HR MAX TEMP:  28;

LAMBERTVILLE   CLOUDY    32  28  86 CALM      30.24R
LANSING        CLOUDY    26  21  81 N7        30.24R
6HR MIN TEMP:  26; 6HR MAX TEMP:  27;

LAPEER         NOT AVBL
MASON          CLOUDY    26  24  91 NE3       30.23R
MONROE         MIX PCPN  28  27  93 CALM      30.23R
MT. CLEMENS    CLOUDY    27  23  85 NW5       30.22R
6HR MIN TEMP:  26; 6HR MAX TEMP:  27; 6HR PCP: TRACE;

PONTIAC        CLOUDY    24  20  84 N6        30.22R
6HR MIN TEMP:  24; 6HR MAX TEMP:  26;

PORT HOPE        N/A     29  19  66 NW3       30.22R
6HR MIN TEMP:  28; 6HR MAX TEMP:  30;

PORT HURON     CLOUDY    27  21  80 NW8       30.23R
TRI CITIES     CLOUDY    25  18  74 NW6       30.27R
6HR MIN TEMP:  24; 6HR MAX TEMP:  26;

$$
MIZ043>046-050>051-056>058-064>065-071>073-077>080-191300-
SOUTHWEST LOWER MICHIGAN

CITY           SKY/WX    TMP DP  RH WIND       PRES   REMARKS
BATTLE CREEK   CLOUDY    29  25  85 NW7       30.23R
6HR MIN TEMP:  29; 6HR MAX TEMP:  29;

BENTON HARBOR  CLOUDY    28  23  81 CALM      30.26R
6HR MIN TEMP:  28; 6HR MAX TEMP:  31; 6HR PCP: TRACE;

BIG RAPIDS     CLOUDY    22  19  91 CALM      30.24S
6HR MIN TEMP:  22; 6HR MAX TEMP:  25;

COLDWATER      CLOUDY    27  26  94 MISG      30.22R FOG
6HR MIN TEMP:  27; 6HR MAX TEMP:  27;

HOLLAND        CLEAR     21  16  81 CALM      30.26R
6HR MIN TEMP:  21; 6HR MAX TEMP:  30;

GRAND RAPIDS   CLOUDY    27  19  72 NE5       30.24S
6HR MIN TEMP:  26; 6HR MAX TEMP:  28;

KALAMAZOO      CLOUDY    28  24  85 N6        30.23S
6HR MIN TEMP:  28; 6HR MAX TEMP:  29;

MARSHALL       CLOUDY    27  25  94 CALM      30.22R
MUSKEGON       CLEAR     20  16  84 N3        30.27R
6HR MIN TEMP:  19; 6HR MAX TEMP:  26;

$$
MIZ016>042-191300-
NORTHERN LOWER MICHIGAN

CITY           SKY/WX    TMP DP  RH WIND       PRES   REMARKS
ALPENA         CLEAR     14  11  87 SW3       30.25R
6HR MIN TEMP:  12; 6HR MAX TEMP:  15;

BEAVER ISLAND  PTCLDY    10   7  91 CALM      30.27S
6HR MIN TEMP:  10; 6HR MAX TEMP:  14;

BELLAIRE       MOCLDY     8   5  89 CALM      30.29R
6HR MIN TEMP:   7; 6HR MAX TEMP:  11;

CADILLAC       FOG       13  11  92 CALM      30.22R VSB 1/2
CHARLEVOIX     CLOUDY    12  11  92 CALM      30.30R
6HR MIN TEMP:  11; 6HR MAX TEMP:  14;

FRANKFORT      CLOUDY    17  16  96 CALM      30.27R
GAYLORD        PTCLDY     2  -1  88 W3        30.22R
6HR MIN TEMP:   0; 6HR MAX TEMP:   6;

GRAYLING       PTCLDY     2  -2  85 CALM      30.25R
6HR MIN TEMP:   1; 6HR MAX TEMP:   8;

HARBOR SPRINGS PTCLDY     8   5  87 CALM      30.26R
HOUGHTON LAKE  FOG       11   9  92 CALM      30.24R VSB 1/2
6HR MIN TEMP:  10; 6HR MAX TEMP:  15;

MANISTEE       MOCLDY    10   7  85 CALM      30.27S
OSCODA         CLEAR     12  10  92 CALM      30.25R
PELLSTON       PTCLDY    -1  -6  79 CALM      30.27R
6HR MIN TEMP:  -2; 6HR MAX TEMP:   4;

TRAVERSE CITY  CLOUDY    16  13  88 CALM      30.27S
6HR MIN TEMP:  12; 6HR MAX TEMP:  16;

$$
MIZ007>008-015-191300-
EASTERN UPPER MICHIGAN

CITY           SKY/WX    TMP DP  RH WIND       PRES   REMARKS
KINROSS        PTCLDY     7   5  92 CALM      30.26R
6HR MIN TEMP:   7; 6HR MAX TEMP:  14;

MACKINAC ISLAN PTCLDY    13  12  94 N3        30.26R
6HR MIN TEMP:  12; 6HR MAX TEMP:  21;

NEWBERRY       PTCLDY     6   4  94 CALM      30.26R
6HR MIN TEMP:   6; 6HR MAX TEMP:  20;

S. S. MARIE    PTCLDY     6   2  83 CALM      30.29R
6HR MIN TEMP:   5; 6HR MAX TEMP:  16;

$$
MIZ004>006-011>014-085-191300-
CENTRAL UPPER MICHIGAN

CITY           SKY/WX    TMP DP  RH WIND       PRES   REMARKS
MANISTIQUE     PTCLDY     7   5  91 CALM      30.27S
6HR MIN TEMP:   6; 6HR MAX TEMP:  13;

ESCANABA       PTCLDY     9   3  78 CALM      30.27S
6HR MIN TEMP:   9; 6HR MAX TEMP:  14;

MENOMINEE      PTCLDY    14  12  92 NW3       30.28R
6HR MIN TEMP:  14; 6HR MAX TEMP:  18;

SAWYER-GWINN   CLOUDY    19  18  93 CALM      30.24R
$$
MIZ001>003-009>011-084-191300-
WESTERN UPPER MICHIGAN

CITY           SKY/WX    TMP DP  RH WIND       PRES   REMARKS
IRON MOUNTAIN  CLOUDY     5   1  83 N3        30.26R
6HR MIN TEMP:   1; 6HR MAX TEMP:   6;

HOUGHTON       CLOUDY    21  17  84 W6        30.26R
6HR MIN TEMP:   4; 6HR MAX TEMP:  21;

COPPER HARBOR    N/A     26  20  77 CALM      30.28R
6HR MIN TEMP:  22; 6HR MAX TEMP:  26;

IRONWOOD       CLOUDY     7   7 100 E6        30.22S
6HR MIN TEMP:   1; 6HR MAX TEMP:   7;

$$

ABBREVIATIONS USED IN REMARKS
   TC - TEMPERATURE IN CELSIUS
  WCI - WIND CHILL INDEX
   HX - HEAT INDEX
  VSB - VISIBILITY



USA.gov is the U.S. government's official web portal to all federal, state and local government web resources and services.